| time (UTC) | temp C | wind direction | speed KPH | gust KPH | rain 1hr cm | rain 24hr cm | rain mn cm | humidity % | barometer mb |
| 20260903063227 | 20 | 135 | 0.0 | 0.0 | 0.94 | 1.02 | 0.97 | 94 | 1039.7 |
| 20260903062226 | 20 | 135 | 0.0 | 0.0 | 0.97 | 1.02 | 0.97 | 93 | 1039.8 |
| 20260903061227 | 20 | 135 | 0.0 | 0.0 | 0.89 | 0.94 | 0.89 | 93 | 1039.2 |
| 20260903061125 | 20 | 135 | 0.0 | 0.0 | 0.89 | 0.94 | 0.89 | 94 | 1039.2 |
| 20260903060128 | 20 | 135 | 0.0 | 0.0 | 0.71 | 0.79 | 0.69 | 93 | 1040.2 |
| 20260903055126 | 20 | 135 | 0.0 | 0.0 | 0.08 | 0.13 | 0.08 | 93 | 1041.8 |
| 20260903055028 | 20 | 135 | 0.0 | 0.0 | 0.08 | 0.13 | 0.05 | 93 | 1041.7 |
| 20260903053127 | 21 | 360 | 0.0 | 0.0 | 0.03 | 0.08 | 0.03 | 92 | 1040.6 |
| 20260903052127 | 21 | 360 | 0.0 | 0.0 | 0.00 | 0.05 | 0.00 | 91 | 1040.6 |
| 20260903044126 | 21 | 360 | 0.0 | 0.0 | 0.00 | 0.05 | 0.00 | 92 | 1040.2 |
| 20260903043224 | 21 | 360 | 0.0 | 0.0 | 0.00 | 0.05 | 0.00 | 92 | 1040.3 |
| 20260903042227 | 21 | 360 | 0.0 | 0.0 | 0.00 | 0.05 | 0.00 | 92 | 1040.4 |
| 20260903041228 | 21 | 360 | 0.0 | 0.0 | 0.00 | 0.05 | 0.00 | 91 | 1040.5 |
| 20260903040226 | 21 | 360 | 0.0 | 0.0 | 0.00 | 0.05 | 0.00 | 92 | 1040.7 |
| 20260903035324 | 21 | 360 | 0.0 | 0.0 | 0.00 | 0.05 | 0.05 | 92 | 1040.8 |
| 20260903034325 | 21 | 360 | 0.0 | 0.0 | 0.00 | 0.05 | 0.05 | 93 | 1040.9 |
| 20260903033423 | 21 | 360 | 0.0 | 0.0 | 0.00 | 0.05 | 0.05 | 93 | 1041.2 |
| 20260903032423 | 21 | 360 | 0.0 | 0.0 | 0.00 | 0.05 | 0.05 | 93 | 1040.8 |
| 20260903031426 | 21 | 5 | 0.0 | 0.0 | 0.00 | 0.05 | 0.05 | 92 | 1040.4 |
| 20260903030524 | 21 | 45 | 0.0 | 0.0 | 0.00 | 0.05 | 0.05 | 93 | 1040.6 |
| 20260903022525 | 21 | 315 | 0.0 | 0.0 | 0.00 | 0.05 | 0.05 | 92 | 1040.9 |
| 20260903021526 | 21 | 315 | 0.0 | 0.0 | 0.00 | 0.05 | 0.05 | 92 | 1040.9 |
| 20260903015623 | 21 | 315 | 0.0 | 0.0 | 0.00 | 0.05 | 0.05 | 91 | 1040.3 |
| 20260903014626 | 21 | 315 | 0.0 | 0.0 | 0.00 | 0.05 | 0.05 | 91 | 1040.3 |
| 20260903013723 | 21 | 315 | 0.0 | 0.0 | 0.00 | 0.05 | 0.05 | 91 | 1040.4 |
| 20260903012725 | 21 | 315 | 0.0 | 0.0 | 0.00 | 0.05 | 0.05 | 90 | 1040.5 |
| 20260903011726 | 21 | 298 | 0.0 | 0.0 | 0.00 | 0.05 | 0.05 | 90 | 1040.7 |
| 20260903005824 | 21 | 292 | 0.0 | 0.0 | 0.00 | 0.08 | 0.05 | 91 | 1040.8 |
| 20260903004824 | 21 | 292 | 0.0 | 0.0 | 0.00 | 0.08 | 0.05 | 91 | 1040.8 |
| 20260903003825 | 21 | 292 | 0.0 | 0.0 | 0.00 | 0.08 | 0.05 | 90 | 1040.8 |
| 20260903002825 | 21 | 292 | 0.0 | 0.0 | 0.00 | 0.10 | 0.05 | 90 | 1040.5 |
| 20260903001824 | 21 | 292 | 0.0 | 0.0 | 0.00 | 0.10 | 0.05 | 91 | 1040.5 |
| 20260903000825 | 21 | 270 | 0.0 | 0.0 | 0.00 | 0.10 | 0.05 | 91 | 1040.3 |
| 20260902234923 | 21 | 270 | 0.0 | 0.0 | 0.00 | 0.10 | 0.05 | 91 | 1040.2 |
| 20260902233823 | 21 | 270 | 0.0 | 0.0 | 0.00 | 0.10 | 0.05 | 90 | 1040.3 |
| 20260902232922 | 21 | 270 | 0.0 | 0.0 | 0.00 | 0.10 | 0.05 | 90 | 1040.3 |
| 20260902231924 | 21 | 270 | 0.0 | 0.0 | 0.00 | 0.10 | 0.05 | 90 | 1040.2 |
| 20260902231023 | 21 | 270 | 0.0 | 0.0 | 0.00 | 0.10 | 0.05 | 90 | 1040.2 |
| 20260902230023 | 21 | 270 | 0.0 | 0.0 | 0.00 | 0.10 | 0.05 | 90 | 1040.4 |
| 20260902225123 | 21 | 270 | 0.0 | 0.0 | 0.00 | 0.10 | 0.05 | 90 | 1040.5 |
| 20260902224125 | 21 | 270 | 0.0 | 0.0 | 0.00 | 0.10 | 0.05 | 90 | 1040.6 |
| 20260902223125 | 21 | 270 | 0.0 | 0.0 | 0.00 | 0.10 | 0.05 | 91 | 1040.7 |
| 20260902221127 | 21 | 315 | 0.0 | 0.0 | 0.00 | 0.10 | 0.05 | 90 | 1041.1 |
| 20260902221025 | 21 | 315 | 0.0 | 0.0 | 0.00 | 0.10 | 0.05 | 91 | 1041.1 |
| 20260902214123 | 21 | 315 | 0.0 | 0.0 | 0.00 | 0.10 | 0.05 | 91 | 1040.9 |
| 20260902213125 | 21 | 315 | 0.0 | 0.0 | 0.00 | 0.10 | 0.05 | 90 | 1040.7 |
| 20260902212140 | 21 | 315 | 0.0 | 0.0 | 0.00 | 0.10 | 0.05 | 91 | 1040.4 |
| 20260902204224 | 22 | 360 | 0.0 | 0.0 | 0.00 | 0.10 | 0.05 | 90 | 1040.7 |
| 20260902204123 | 22 | 360 | 0.0 | 0.0 | 0.00 | 0.10 | 0.05 | 91 | 1040.7 |
| 20260902203125 | 22 | 337 | 0.0 | 0.0 | 0.00 | 0.10 | 0.05 | 92 | 1040.7 |
| 20260902202224 | 21 | 337 | 0.0 | 0.0 | 0.00 | 0.10 | 0.05 | 91 | 1040.6 |
| 20260902201227 | 21 | 337 | 0.0 | 0.0 | 0.00 | 0.10 | 0.05 | 93 | 1040.5 |
| 20260902200225 | 21 | 337 | 0.0 | 1.6 | 0.00 | 0.10 | 0.05 | 93 | 1040.6 |
| 20260902195226 | 21 | 360 | 0.0 | 0.0 | 0.00 | 0.10 | 0.05 | 93 | 1040.6 |
| 20260902193423 | 21 | 360 | 0.0 | 0.0 | 0.00 | 0.10 | 0.05 | 93 | 1040.8 |
| 20260902192325 | 21 | 360 | 0.0 | 0.0 | 0.00 | 0.10 | 0.05 | 92 | 1041.1 |
| 20260902191424 | 21 | 360 | 0.0 | 0.0 | 0.00 | 0.10 | 0.05 | 92 | 1041.1 |
| 20260902190523 | 21 | 360 | 0.0 | 0.0 | 0.00 | 0.10 | 0.05 | 92 | 1041.4 |
| 20260902185527 | 21 | 360 | 0.0 | 0.0 | 0.00 | 0.10 | 0.05 | 91 | 1041.4 |
| 20260902185425 | 21 | 360 | 0.0 | 0.0 | 0.00 | 0.10 | 0.05 | 90 | 1041.6 |
| 20260902184425 | 21 | 360 | 0.0 | 0.0 | 0.00 | 0.10 | 0.05 | 91 | 1041.6 |
| 20260902183524 | 21 | 360 | 0.0 | 0.0 | 0.00 | 0.10 | 0.05 | 91 | 1041.6 |
| 20260902182541 | 21 | 360 | 0.0 | 0.0 | 0.00 | 0.10 | 0.05 | 90 | 1041.8 |
| 20260902181523 | 21 | 360 | 0.0 | 0.0 | 0.00 | 0.10 | 0.05 | 90 | 1042.0 |
| 20260902180524 | 21 | 360 | 0.0 | 0.0 | 0.00 | 0.10 | 0.05 | 89 | 1041.8 |
| 20260902175523 | 21 | 360 | 0.0 | 0.0 | 0.00 | 0.10 | 0.05 | 89 | 1041.6 |
| 20260902173525 | 22 | 360 | 0.0 | 0.0 | 0.00 | 0.10 | 0.05 | 88 | 1041.7 |
| 20260902172524 | 22 | 360 | 0.0 | 0.0 | 0.00 | 0.10 | 0.05 | 88 | 1042.2 |
| 20260902172423 | 22 | 360 | 0.0 | 0.0 | 0.00 | 0.10 | 0.05 | 88 | 1042.2 |
| 20260902170425 | 22 | 360 | 0.0 | 0.0 | 0.00 | 0.10 | 0.05 | 86 | 1042.6 |
| 20260902165424 | 22 | 360 | 0.0 | 0.0 | 0.00 | 0.10 | 0.05 | 86 | 1042.8 |
| 20260902164423 | 22 | 360 | 0.0 | 0.0 | 0.03 | 0.10 | 0.05 | 87 | 1042.8 |
| 20260902163426 | 22 | 360 | 0.0 | 0.0 | 0.03 | 0.10 | 0.05 | 87 | 1042.6 |
| 20260902162427 | 22 | 360 | 0.0 | 0.0 | 0.03 | 0.10 | 0.05 | 86 | 1042.7 |
| 20260902161524 | 22 | 360 | 0.0 | 0.0 | 0.03 | 0.10 | 0.05 | 87 | 1042.4 |
| 20260902161425 | 22 | 360 | 0.0 | 0.0 | 0.03 | 0.10 | 0.05 | 87 | 1042.3 |
| 20260902160424 | 22 | 360 | 0.0 | 0.0 | 0.03 | 0.10 | 0.05 | 87 | 1042.3 |
| 20260902155424 | 21 | 360 | 0.0 | 0.0 | 0.05 | 0.10 | 0.03 | 87 | 1042.1 |
| 20260902154425 | 21 | 360 | 0.0 | 1.6 | 0.03 | 0.08 | 0.03 | 87 | 1042.3 |
| 20260902151524 | 21 | 360 | 0.0 | 0.0 | 0.03 | 0.08 | 0.03 | 88 | 1042.3 |
| 20260902150524 | 21 | 360 | 0.0 | 0.0 | 0.03 | 0.08 | 0.03 | 88 | 1042.3 |
| 20260902145524 | 21 | 360 | 0.0 | 0.0 | 0.00 | 0.05 | 0.00 | 89 | 1042.5 |
| 20260902144524 | 21 | 360 | 0.0 | 0.0 | 0.00 | 0.05 | 0.00 | 89 | 1042.6 |
| 20260902143623 | 21 | 360 | 0.0 | 0.0 | 0.00 | 0.05 | 0.00 | 89 | 1042.6 |
| 20260902142625 | 21 | 236 | 0.0 | 0.0 | 0.00 | 0.05 | 0.00 | 88 | 1042.3 |
| 20260902141624 | 21 | 225 | 0.0 | 0.0 | 0.00 | 0.05 | 0.00 | 89 | 1042.1 |
| 20260902140640 | 21 | 360 | 0.0 | 1.6 | 0.00 | 0.05 | 0.00 | 89 | 1042.3 |
| 20260902140523 | 21 | 360 | 0.0 | 0.0 | 0.00 | 0.05 | 0.00 | 90 | 1042.3 |
| 20260902135424 | 21 | 360 | 0.0 | 1.6 | 0.00 | 0.05 | 0.00 | 91 | 1042.2 |
| 20260902134523 | 21 | 360 | 0.0 | 0.0 | 0.00 | 0.05 | 0.00 | 91 | 1042.3 |
| 20260902133524 | 20 | 360 | 0.0 | 0.0 | 0.00 | 0.05 | 0.00 | 91 | 1042.2 |
| 20260902132524 | 20 | 315 | 0.0 | 0.0 | 0.00 | 0.05 | 0.00 | 92 | 1042.1 |
| 20260902130624 | 20 | 360 | 0.0 | 0.0 | 0.00 | 0.05 | 0.00 | 93 | 1041.8 |
| 20260902125623 | 20 | 315 | 0.0 | 0.0 | 0.00 | 0.05 | 0.00 | 93 | 1041.6 |
| 20260902124624 | 20 | 292 | 0.0 | 0.0 | 0.00 | 0.05 | 0.00 | 93 | 1041.8 |
| 20260902122625 | 20 | 270 | 0.0 | 0.0 | 0.00 | 0.05 | 0.00 | 94 | 1041.6 |
| 20260902121626 | 20 | 270 | 0.0 | 0.0 | 0.00 | 0.05 | 0.00 | 93 | 1041.5 |
| 20260902121524 | 20 | 270 | 0.0 | 0.0 | 0.00 | 0.05 | 0.00 | 94 | 1041.6 |
| 20260902120525 | 20 | 90 | 0.0 | 0.0 | 0.00 | 0.05 | 0.00 | 94 | 1041.5 |
| 20260902114523 | 20 | 360 | 0.0 | 0.0 | 0.00 | 0.05 | 0.00 | 95 | 1041.6 |
| 20260902113523 | 20 | 225 | 0.0 | 0.0 | 0.00 | 0.05 | 0.00 | 95 | 1041.5 |
| 20260902112524 | 20 | 225 | 0.0 | 0.0 | 0.00 | 0.05 | 0.00 | 95 | 1041.4 |
| 20260902110524 | 20 | 225 | 0.0 | 0.0 | 0.00 | 0.05 | 0.00 | 95 | 1041.5 |
| 20260902105524 | 20 | 360 | 0.0 | 0.0 | 0.00 | 0.05 | 0.00 | 95 | 1041.5 |
| 20260902104523 | 20 | 360 | 0.0 | 0.0 | 0.00 | 0.05 | 0.00 | 95 | 1041.3 |
| 20260902103525 | 20 | 360 | 0.0 | 0.0 | 0.00 | 0.05 | 0.00 | 95 | 1041.3 |
| 20260902103423 | 20 | 360 | 0.0 | 0.0 | 0.00 | 0.05 | 0.00 | 95 | 1041.1 |
| 20260902101425 | 20 | 360 | 0.0 | 0.0 | 0.00 | 0.08 | 0.00 | 94 | 1041.1 |
| 20260902100423 | 20 | 360 | 0.0 | 0.0 | 0.00 | 0.08 | 0.00 | 94 | 1041.2 |
| 20260902095424 | 20 | 360 | 0.0 | 0.0 | 0.00 | 0.08 | 0.00 | 94 | 1041.3 |
| 20260902095323 | 20 | 360 | 0.0 | 0.0 | 0.00 | 0.08 | 0.00 | 94 | 1041.3 |
| 20260902095224 | 20 | 360 | 0.0 | 0.0 | 0.00 | 0.08 | 0.00 | 94 | 1041.2 |
| 20260902092323 | 20 | 360 | 0.0 | 0.0 | 0.00 | 0.08 | 0.00 | 94 | 1040.9 |
| 20260902091324 | 20 | 360 | 0.0 | 0.0 | 0.00 | 0.08 | 0.00 | 94 | 1040.8 |
| 20260902090325 | 20 | 360 | 0.0 | 0.0 | 0.00 | 0.08 | 0.00 | 93 | 1040.6 |
| 20260902085324 | 20 | 360 | 0.0 | 0.0 | 0.00 | 0.08 | 0.00 | 93 | 1040.6 |
| 20260902083325 | 20 | 360 | 0.0 | 0.0 | 0.00 | 0.08 | 0.00 | 94 | 1040.4 |
| 20260902082327 | 20 | 360 | 0.0 | 0.0 | 0.00 | 0.08 | 0.00 | 93 | 1040.3 |
| 20260902081323 | 20 | 360 | 0.0 | 0.0 | 0.00 | 0.08 | 0.00 | 93 | 1040.2 |
| 20260902081225 | 20 | 360 | 0.0 | 0.0 | 0.00 | 0.08 | 0.00 | 94 | 1040.2 |
| 20260902081123 | 20 | 360 | 0.0 | 0.0 | 0.00 | 0.08 | 0.00 | 93 | 1040.2 |
| 20260902080125 | 20 | 360 | 0.0 | 0.0 | 0.00 | 0.08 | 0.00 | 94 | 1040.1 |
| 20260902075223 | 20 | 360 | 0.0 | 0.0 | 0.00 | 0.08 | 0.00 | 92 | 1040.0 |
| 20260902075124 | 20 | 360 | 0.0 | 0.0 | 0.00 | 0.08 | 0.00 | 92 | 1040.1 |
| 20260902073224 | 21 | 22 | 0.0 | 0.0 | 0.00 | 0.08 | 0.00 | 92 | 1039.9 |
| 20260902072226 | 21 | 22 | 0.0 | 0.0 | 0.00 | 0.08 | 0.00 | 93 | 1039.8 |
| 20260902072124 | 21 | 22 | 0.0 | 0.0 | 0.00 | 0.08 | 0.00 | 93 | 1039.8 |
| 20260902071126 | 21 | 360 | 0.0 | 3.2 | 0.00 | 0.08 | 0.00 | 93 | 1039.8 |
| 20260902070223 | 21 | 360 | 0.0 | 4.8 | 0.00 | 0.08 | 0.00 | 92 | 1039.9 |
| 20260902065223 | 21 | 360 | 0.0 | 1.6 | 0.00 | 0.08 | 0.00 | 93 | 1039.8 |
| 20260902064223 | 21 | 285 | 0.0 | 0.0 | 0.00 | 0.08 | 0.00 | 94 | 1039.7 |